SCP
-0 -0 -0 0 0 0 0 -0 -0 -0 -0 -0 -0 -0 -0 -0 -0 -0 -0 -0 -0 -0 -0 -0 -0 -0 -0 -0 -0 -0 -0 -0 -0 -0 -0 -0 -0 -0 -0 -0 -0 -0 -0
-0 -0 -0 0 0 -0 0 0 0 -0 -0 -0 -0 -0 -0 -0 -0 -0 -0 -0 -0 -0 -0 -0 -0 -0 -0 -0 -0 -0 -0 -0 -0 0 -0 -0 -0 -0 -0 -0 -0 -0 -0
-0 -0 -0 0 0 -0 0 0 -0 -0 -0 -0 -0 -0 -0 -0 -0 -0 -0 -0 -0 -0 -0 -0 -0 -0 -0 -0 -0 -0 -0 -0 -0 -0 -0 0 0 -0 -0 -0 -0 -0 -0
-0 0 0 -0 0 0 0 0 -0 -0 -0 -0 0 -0 -0 -0 -0 -0 -0 -0 -0 -0 -0 -0 -0 -0 -0 -0 -0 -0 -0 0 0 0 0 0 0 -0 -0 -0 -0 -0 -0
-0 -0 -0 0 0 -0 -0 -0 -0 -0 -0 -0 -0 -0 -0 -0 -0 -0 -0 -0 -0 -0 -0 -0 -0 -0 -0 -0 -0 0 0 0 0 0 0 0 0 0 -0 -0 -0 -0 0
-0 -0 -0 -0 -0 0 0 0 -0 -0 -0 -0 -0 -0 -0 -0 -0 -0 -0 -0 -0 -0 -0 -0 -0 -0 -0 -0 0 0 0 0 0 0 0 0 0 0 -0 -0 0 -0 0
-0 -0 -0 -0 0 0 -0 -0 0 -0 -0 -0 -0 -0 -0 -0 -0 -0 -0 -0 -0 -0 -0 -0 -0 -0 -0 0 0 0 0 0 0 0 0 0 0 0 0 0 0 0 0
-0 -0 -0 -0 -0 -0 -0 -0 -0 0 0 -0 -0 -0 -0 -0 -0 -0 -0 -0 -0 -0 -0 -0 -0 -0 -0 0 0 0 0 0 0 0 0 0 0 0 0 0 0 0 0
-0 -0 -0 -0 -0 -0 -0 -0 -0 0 0 0 -0 -0 -0 -0 -0 -0 -0 -0 -0 -0 -0 -0 -0 -0 0 0 0 0 0 0 0 0 0 0 0 0 0 0 0 0 0
0 -0 -0 -0 -0 -0 -0 -0 0 0 0 0 0 0 0 0 0 0 0 0 -0 -0 -0 -0 0 0 0 0 0 0 0 0 0 0 0 0 0 0 0 0 0 0 0
0 -0 -0 -0 -0 -0 -0 -0 0 0 0 0 0 0 0 0 0 0 0 -0 0 0 0 0 0 0 0 0 0 -0 0 0 0 0 0 0 0 0 0 0 0 0 0
-0 -0 0 0 -0 -0 0 -0 0 0 0 0 0 0 0 0 0 0 0 0 0 0 0 0 0 0 0 0 0 0 0 0 0 0 0 0 0 0 0 0 0 0 0
-0 0 0 0 0 0 0 -0 -0 -0 -0 0 0 0 0 0 0 0 0 0 0 0 0 0 0 0 0 0 0 0 0 0 0 0 0 0 0 0 0 0 0 0 0
-0 -0 0 0 -0 0 0 0 0 0 0 0 0 0 0 0 0 0 0 0 0 0 0 0 0 0 0 0 0 0 0 0 0 0 0 0 0 0 0 0 0 0 0
-0 -0 -0 -0 0 0 -0 0 0 0 0 0 0 0 0 0 0 0 0 0 0 0 0 0 0 0 0 0 0 0 0 0 0 0 0 0 0 0 0 0 0 0 0
0 -0 -0 -0 -0 -0 -0 -0 0 0 0 0 0 0 0 0 0 0 0 0 0 0 0 0 0 0 0 0 0 0 0 0 0 0 0 0 0 0 0 0 0 0 0
0 -0 -0 -0 -0 -0 -0 0 0 0 0 0 0 0 0 0 0 0 0 0 0 0 0 0 0 0 0 0 0 0 0 0 0 0 0 0 0 0 0 0 0 0 0
0 0 0 0 -0 0 0 0 0 0 0 0 0 0 0 0 0 0 0 0 0 0 0 0 0 0 0 0 0 0 0 0 0 0 0 0 0 0 0 0 0 0 0
0 0 0 0 0 0 0 0 0 0 0 0 0 0 0 0 0 0 0 0 0 0 0 0 0 0 0 0 0 0 0 0 0 0 0 0 0 0 0 0 0 0 0
0 0 0 0 0 0 0 0 0 0 0 0 0 0 0 0 0 0 0 0 0 0 0 0 0 0 0 0 0 0 0 0 0 0 0 0 0 0 0 0 0 0 0
0 0 0 0 0 0 0 0 0 0 0 0 0 0 0 0 0 0 0 0 0 0 0 0 0 0 0 0 0 0 0 0 0 0 0 0 0 0 0 0 0 0 0
0 0 0 0 0 0 0 0 0 0 0 0 0 0 0 0 0 0 0 0 0 0 0 0 0 0 0 0 0 0 0 0 0 0 0 0 0 0 0 0 0 0 0
0 0 0 0 0 0 0 0 0 0 0 0 0 0 0 0 0 0 0 0 0 0 0 0 0 0 0 0 0 0 0 0 0 0 0 0 0 0 0 0 0 0 0
0 0 0 0 0 0 0 0 0 0 0 0 0 0 0 0 0 0 0 0 0 0 0 0 0 0 0 0 0 0 0 0 0 0 0 0 0 0 0 0 0 0 0
0 0 0 0 0 0 0 0 0 0 0 0 0 0 0 0 0 0 0 0 0 0 0 0 0 0 0 0 0 0 0 0 0 0 0 0 0 0 0 0 0 0 0
0 0 0 0 0 0 0 0 0 0 0 0 0 0 0 0 0 0 0 0 0 0 0 0 0 0 0 0 0 0 0 0 0 0 0 0 0 0 0 0 0 0 0
Wind_Speed_500mb
19 31 25 21 19 12 17 17 17 19 20 18 18 23 22 20 15 11 13 14 15 13 16 18 20 21 22 24 27 29 31 31 31 31 30 31 33 31 27 28 29 30 29
26 28 27 20 21 17 21 22 23 21 18 22 24 24 22 20 18 22 19 17 14 8 27 26 25 21 18 16 17 20 18 19 21 19 20 21 23 25 22 24 26 25 27
25 27 24 23 21 23 25 25 22 18 18 21 25 25 24 23 26 29 32 27 26 27 26 25 24 20 25 24 24 22 26 31 35 28 26 28 27 16 14 16 10 11 11
24 23 24 21 25 28 27 28 22 14 17 23 31 23 23 26 35 31 27 27 29 28 25 25 25 25 29 29 30 32 35 34 29 19 19 22 29 21 19 18 13 14 9
30 26 24 24 26 27 31 27 21 14 18 24 25 20 23 28 32 29 23 26 28 26 28 27 26 25 27 27 32 37 36 30 18 17 20 19 13 9 14 18 16 16 18
28 28 27 28 26 27 33 29 20 15 19 22 22 22 23 24 26 27 23 25 27 28 28 27 25 23 25 27 33 35 37 30 16 21 14 7 13 17 12 16 16 12 8
30 28 29 28 28 29 28 29 21 16 20 21 21 22 21 22 24 24 22 20 26 27 29 24 25 24 28 28 30 30 31 30 15 13 11 11 9 7 8 6 7 5 8
30 29 29 29 26 26 25 23 19 16 17 19 20 21 20 20 20 20 23 19 22 20 21 20 21 23 25 24 22 22 22 24 5 8 9 8 11 10 4 4 3 1 2
22 29 27 26 25 24 23 21 18 16 15 16 18 19 18 19 19 19 22 18 13 9 10 16 20 21 19 19 16 17 23 19 10 9 8 15 13 6 3 2 3 2 6
24 24 24 24 23 22 21 20 17 13 14 15 16 16 15 15 16 15 15 15 13 11 10 10 15 13 13 13 14 18 21 17 11 11 16 15 17 12 10 9 1 3 1
28 33 16 22 22 21 19 17 15 12 10 10 11 11 11 12 10 10 10 5 5 7 7 6 8 8 8 11 13 13 11 10 6 13 15 15 16 15 14 11 10 9 9
36 34 34 21 17 14 16 15 13 10 8 7 8 5 8 6 7 11 5 4 5 7 8 7 5 6 7 8 11 8 8 8 5 15 16 19 17 16 17 17 17 14 13
36 42 38 34 27 23 19 17 15 13 11 7 6 4 2 2 3 4 3 3 4 5 4 4 3 2 4 2 7 6 3 3 7 12 16 19 20 19 21 19 18 16 15
39 35 43 38 32 26 26 21 18 15 14 11 10 7 6 4 3 6 5 6 6 6 5 3 2 5 6 6 8 9 8 7 7 15 16 14 17 19 19 21 18 18 15
44 42 36 41 39 33 26 23 20 19 19 16 14 11 11 10 7 7 8 9 9 8 9 7 7 6 7 8 11 12 10 8 10 13 18 17 20 21 22 21 23 22 20
40 40 39 37 42 42 38 33 29 25 19 19 19 16 15 15 13 13 14 13 12 12 12 12 12 12 11 12 16 18 19 21 21 21 23 28 29 27 26 27 28 27 26
42 39 39 36 35 42 41 38 36 34 29 24 22 21 19 19 19 19 18 17 16 15 16 17 20 21 24 28 30 32 33 33 33 35 37 38 42 43 43 40 39 39 37
39 41 39 40 37 33 37 35 33 32 30 33 27 22 18 19 21 22 20 22 24 25 25 25 28 27 30 34 37 38 44 44 45 46 48 49 50 54 54 53 52 51 50
36 38 41 42 45 40 31 33 32 29 28 27 27 26 22 19 19 22 20 23 27 29 31 31 33 36 40 41 47 48 52 55 53 54 54 55 56 58 60 63 62 61 60
34 34 36 42 44 40 37 36 35 34 33 31 30 28 27 27 27 26 26 23 25 24 25 29 34 38 44 46 52 55 59 62 64 67 66 66 63 67 67 70 69 69 69
48 47 45 42 45 45 42 44 43 43 39 37 36 36 35 34 32 34 32 32 34 30 33 37 43 45 50 52 60 66 68 65 71 72 72 70 66 70 66 65 69 68 65
44 51 51 49 48 48 45 42 41 42 41 38 37 38 37 36 31 34 40 39 39 42 42 44 47 53 51 54 66 71 67 71 76 63 57 73 71 64 68 68 69 74 67
41 46 53 54 49 44 48 41 37 40 39 33 31 32 32 30 30 33 38 42 46 44 45 45 47 50 53 55 58 59 49 44 68 75 63 63 71 71 66 75 83 79 78
28 33 41 49 54 48 43 42 37 37 35 30 25 22 22 23 24 25 27 33 36 40 48 45 42 46 49 57 57 66 61 73 68 66 69 79 79 67 81 87 83 78 80
18 20 25 37 47 54 48 34 24 24 26 24 22 15 13 15 18 20 23 25 30 34 38 39 40 43 47 53 59 65 64 66 69 73 84 75 86 93 96 83 85 85 90
16 15 16 22 31 38 47 44 31 29 16 18 18 14 11 12 14 20 22 26 28 31 33 39 43 47 48 55 56 58 63 66 72 75 84 95 98 90 87 96 93 90 87
Wind_Direction_500mb
158 152 155 138 136 97 110 104 89 71 64 74 79 85 87 90 93 110 135 136 115 113 88 84 87 91 102 96 91 86 83 79 79 76 77 81 79 75 69 71 80 81 82
162 155 140 137 118 138 116 112 100 80 73 66 71 83 87 89 84 93 104 158 169 108 88 89 90 107 111 99 89 90 95 84 76 73 73 71 72 78 78 71 84 92 96
167 152 145 132 130 127 121 115 108 97 81 65 73 81 83 82 87 79 76 81 94 92 91 90 92 88 84 83 84 83 80 81 72 62 77 76 69 68 89 89 79 84 79
153 152 138 134 131 129 124 120 113 105 65 63 76 79 84 82 85 82 72 73 84 86 85 83 83 83 89 91 91 90 85 79 78 82 76 79 78 73 77 93 98 79 59
145 143 130 130 125 123 122 118 119 107 71 65 73 81 83 82 91 96 73 77 79 82 84 84 88 89 92 90 93 95 93 90 88 76 76 70 66 63 96 83 79 71 71
135 131 129 122 124 124 133 122 124 103 83 81 79 84 86 88 98 105 91 84 76 86 83 81 83 87 88 92 96 96 89 81 78 76 65 70 67 66 73 90 73 50 44
145 139 129 125 129 130 133 132 124 109 92 82 78 81 85 86 88 95 94 86 79 87 86 88 87 86 84 92 100 100 102 85 54 80 73 75 80 76 68 77 68 53 43
148 144 135 131 130 126 127 130 128 113 101 87 81 80 82 83 87 89 82 88 84 83 84 89 86 91 83 94 100 91 95 89 70 47 55 49 30 11 86 59 87 311 100
166 144 140 137 136 133 132 132 137 127 118 102 92 87 84 87 91 100 103 100 93 97 68 79 84 84 84 84 82 76 98 90 28 19 333 21 21 52 28 198 134 125 116
171 147 152 148 148 144 140 138 144 139 123 110 93 83 78 80 91 99 114 123 108 100 118 81 86 84 73 68 66 76 99 93 27 354 343 5 29 18 350 321 310 305 124
180 154 173 163 162 157 153 153 157 153 138 115 98 85 81 76 78 86 85 110 66 58 80 113 98 83 64 49 44 62 83 75 123 290 328 350 12 13 14 6 355 332 338
181 170 170 180 173 179 172 173 173 173 166 149 128 108 69 56 51 54 45 42 34 18 31 75 109 87 40 45 40 56 38 22 346 303 357 354 358 359 5 5 0 358 349
198 191 181 175 187 193 206 195 198 197 196 193 174 189 137 62 16 6 30 16 33 27 48 53 68 31 9 25 340 8 278 336 305 313 347 357 359 359 357 3 360 356 349
196 214 204 190 183 206 211 205 215 211 216 218 228 229 233 254 268 312 335 339 359 353 18 354 355 352 356 351 350 348 350 349 326 315 340 346 344 345 346 345 354 349 341
200 219 215 203 203 201 211 212 214 230 226 230 236 240 249 260 270 290 298 305 309 319 329 336 333 336 337 352 349 340 332 326 312 305 318 324 324 324 324 325 324 328 324
208 212 233 220 216 215 217 224 212 208 233 231 244 251 251 264 274 278 281 289 300 311 310 314 312 308 306 304 311 308 300 298 297 298 298 307 312 312 312 312 310 306 304
211 215 223 241 231 224 227 228 225 229 229 235 245 253 256 258 270 276 281 291 292 297 301 306 310 311 308 301 299 298 297 297 294 295 295 294 299 300 302 302 300 299 298
212 213 213 229 243 235 227 233 236 235 228 238 242 249 262 255 260 271 274 272 275 283 284 288 292 291 294 298 294 296 295 294 291 293 290 289 290 292 293 295 295 294 294
215 213 213 221 235 242 230 226 230 235 235 234 238 241 250 264 259 268 272 269 263 265 271 278 283 286 289 290 293 293 295 296 295 293 290 293 294 292 290 290 290 291 289
214 219 222 223 237 239 236 230 230 234 240 241 245 245 245 253 266 263 267 266 267 274 286 288 290 287 289 293 290 294 293 296 296 296 293 295 299 299 296 292 288 289 290
210 210 217 222 232 243 241 227 231 237 241 246 252 260 262 262 265 267 268 276 274 278 282 283 284 288 290 296 294 298 295 293 300 289 292 296 293 300 293 292 291 291 289
221 219 214 219 225 234 237 236 234 240 246 251 255 260 263 266 264 264 272 273 277 278 282 288 289 292 293 291 293 299 300 306 301 307 300 300 299 301 295 297 294 298 289
229 224 217 215 215 225 236 237 233 237 242 248 253 262 264 265 260 254 261 270 276 284 286 290 292 296 300 293 298 291 293 294 300 303 297 296 296 295 289 292 294 293 292
237 232 228 220 212 207 227 240 246 231 235 247 253 265 264 263 267 264 263 264 268 278 286 290 291 292 296 298 297 296 300 297 298 299 300 298 300 288 295 298 298 296 294
217 214 215 214 209 205 205 229 220 220 226 225 239 255 268 281 274 277 272 271 271 274 277 285 290 293 291 294 296 302 304 305 300 299 300 301 300 299 297 296 295 297 297
172 165 161 177 195 202 204 206 212 240 221 218 234 244 250 267 285 278 280 274 280 289 288 290 291 291 293 293 297 295 298 297 301 302 299 302 301 301 299 300 299 300 301
Wind_Speed_850mb
19 31 25 21 19 12 17 17 17 19 20 18 18 23 22 20 15 11 13 14 15 13 16 18 20 21 22 24 27 29 31 31 31 31 30 31 33 31 27 28 29 30 29
26 28 27 20 21 17 21 22 23 21 18 22 24 24 22 20 18 22 19 17 14 8 27 26 25 21 18 16 17 20 18 19 21 19 20 21 23 25 22 24 26 25 27
25 27 24 23 21 23 25 25 22 18 18 21 25 25 24 23 26 29 32 27 26 27 26 25 24 20 25 24 24 22 26 31 35 28 26 28 27 16 14 16 10 11 11
24 23 24 21 25 28 27 28 22 14 17 23 31 23 23 26 35 31 27 27 29 28 25 25 25 25 29 29 30 32 35 34 29 19 19 22 29 21 19 18 13 14 9
30 26 24 24 26 27 31 27 21 14 18 24 25 20 23 28 32 29 23 26 28 26 28 27 26 25 27 27 32 37 36 30 18 17 20 19 13 9 14 18 16 16 18
28 28 27 28 26 27 33 29 20 15 19 22 22 22 23 24 26 27 23 25 27 28 28 27 25 23 25 27 33 35 37 30 16 21 14 7 13 17 12 16 16 12 8
30 28 29 28 28 29 28 29 21 16 20 21 21 22 21 22 24 24 22 20 26 27 29 24 25 24 28 28 30 30 31 30 15 13 11 11 9 7 8 6 7 5 8
30 29 29 29 26 26 25 23 19 16 17 19 20 21 20 20 20 20 23 19 22 20 21 20 21 23 25 24 22 22 22 24 5 8 9 8 11 10 4 4 3 1 2
22 29 27 26 25 24 23 21 18 16 15 16 18 19 18 19 19 19 22 18 13 9 10 16 20 21 19 19 16 17 23 19 10 9 8 15 13 6 3 2 3 2 6
24 24 24 24 23 22 21 20 17 13 14 15 16 16 15 15 16 15 15 15 13 11 10 10 15 13 13 13 14 18 21 17 11 11 16 15 17 12 10 9 1 3 1
28 33 16 22 22 21 19 17 15 12 10 10 11 11 11 12 10 10 10 5 5 7 7 6 8 8 8 11 13 13 11 10 6 13 15 15 16 15 14 11 10 9 9
36 34 34 21 17 14 16 15 13 10 8 7 8 5 8 6 7 11 5 4 5 7 8 7 5 6 7 8 11 8 8 8 5 15 16 19 17 16 17 17 17 14 13
36 42 38 34 27 23 19 17 15 13 11 7 6 4 2 2 3 4 3 3 4 5 4 4 3 2 4 2 7 6 3 3 7 12 16 19 20 19 21 19 18 16 15
39 35 43 38 32 26 26 21 18 15 14 11 10 7 6 4 3 6 5 6 6 6 5 3 2 5 6 6 8 9 8 7 7 15 16 14 17 19 19 21 18 18 15
44 42 36 41 39 33 26 23 20 19 19 16 14 11 11 10 7 7 8 9 9 8 9 7 7 6 7 8 11 12 10 8 10 13 18 17 20 21 22 21 23 22 20
40 40 39 37 42 42 38 33 29 25 19 19 19 16 15 15 13 13 14 13 12 12 12 12 12 12 11 12 16 18 19 21 21 21 23 28 29 27 26 27 28 27 26
42 39 39 36 35 42 41 38 36 34 29 24 22 21 19 19 19 19 18 17 16 15 16 17 20 21 24 28 30 32 33 33 33 35 37 38 42 43 43 40 39 39 37
39 41 39 40 37 33 37 35 33 32 30 33 27 22 18 19 21 22 20 22 24 25 25 25 28 27 30 34 37 38 44 44 45 46 48 49 50 54 54 53 52 51 50
36 38 41 42 45 40 31 33 32 29 28 27 27 26 22 19 19 22 20 23 27 29 31 31 33 36 40 41 47 48 52 55 53 54 54 55 56 58 60 63 62 61 60
34 34 36 42 44 40 37 36 35 34 33 31 30 28 27 27 27 26 26 23 25 24 25 29 34 38 44 46 52 55 59 62 64 67 66 66 63 67 67 70 69 69 69
48 47 45 42 45 45 42 44 43 43 39 37 36 36 35 34 32 34 32 32 34 30 33 37 43 45 50 52 60 66 68 65 71 72 72 70 66 70 66 65 69 68 65
44 51 51 49 48 48 45 42 41 42 41 38 37 38 37 36 31 34 40 39 39 42 42 44 47 53 51 54 66 71 67 71 76 63 57 73 71 64 68 68 69 74 67
41 46 53 54 49 44 48 41 37 40 39 33 31 32 32 30 30 33 38 42 46 44 45 45 47 50 53 55 58 59 49 44 68 75 63 63 71 71 66 75 83 79 78
28 33 41 49 54 48 43 42 37 37 35 30 25 22 22 23 24 25 27 33 36 40 48 45 42 46 49 57 57 66 61 73 68 66 69 79 79 67 81 87 83 78 80
18 20 25 37 47 54 48 34 24 24 26 24 22 15 13 15 18 20 23 25 30 34 38 39 40 43 47 53 59 65 64 66 69 73 84 75 86 93 96 83 85 85 90
16 15 16 22 31 38 47 44 31 29 16 18 18 14 11 12 14 20 22 26 28 31 33 39 43 47 48 55 56 58 63 66 72 75 84 95 98 90 87 96 93 90 87
Wind_Direction_850mb
158 152 155 138 136 97 110 104 89 71 64 74 79 85 87 90 93 110 135 136 115 113 88 84 87 91 102 96 91 86 83 79 79 76 77 81 79 75 69 71 80 81 82
162 155 140 137 118 138 116 112 100 80 73 66 71 83 87 89 84 93 104 158 169 108 88 89 90 107 111 99 89 90 95 84 76 73 73 71 72 78 78 71 84 92 96
167 152 145 132 130 127 121 115 108 97 81 65 73 81 83 82 87 79 76 81 94 92 91 90 92 88 84 83 84 83 80 81 72 62 77 76 69 68 89 89 79 84 79
153 152 138 134 131 129 124 120 113 105 65 63 76 79 84 82 85 82 72 73 84 86 85 83 83 83 89 91 91 90 85 79 78 82 76 79 78 73 77 93 98 79 59
145 143 130 130 125 123 122 118 119 107 71 65 73 81 83 82 91 96 73 77 79 82 84 84 88 89 92 90 93 95 93 90 88 76 76 70 66 63 96 83 79 71 71
135 131 129 122 124 124 133 122 124 103 83 81 79 84 86 88 98 105 91 84 76 86 83 81 83 87 88 92 96 96 89 81 78 76 65 70 67 66 73 90 73 50 44
145 139 129 125 129 130 133 132 124 109 92 82 78 81 85 86 88 95 94 86 79 87 86 88 87 86 84 92 100 100 102 85 54 80 73 75 80 76 68 77 68 53 43
148 144 135 131 130 126 127 130 128 113 101 87 81 80 82 83 87 89 82 88 84 83 84 89 86 91 83 94 100 91 95 89 70 47 55 49 30 11 86 59 87 311 100
166 144 140 137 136 133 132 132 137 127 118 102 92 87 84 87 91 100 103 100 93 97 68 79 84 84 84 84 82 76 98 90 28 19 333 21 21 52 28 198 134 125 116
171 147 152 148 148 144 140 138 144 139 123 110 93 83 78 80 91 99 114 123 108 100 118 81 86 84 73 68 66 76 99 93 27 354 343 5 29 18 350 321 310 305 124
180 154 173 163 162 157 153 153 157 153 138 115 98 85 81 76 78 86 85 110 66 58 80 113 98 83 64 49 44 62 83 75 123 290 328 350 12 13 14 6 355 332 338
181 170 170 180 173 179 172 173 173 173 166 149 128 108 69 56 51 54 45 42 34 18 31 75 109 87 40 45 40 56 38 22 346 303 357 354 358 359 5 5 0 358 349
198 191 181 175 187 193 206 195 198 197 196 193 174 189 137 62 16 6 30 16 33 27 48 53 68 31 9 25 340 8 278 336 305 313 347 357 359 359 357 3 360 356 349
196 214 204 190 183 206 211 205 215 211 216 218 228 229 233 254 268 312 335 339 359 353 18 354 355 352 356 351 350 348 350 349 326 315 340 346 344 345 346 345 354 349 341
200 219 215 203 203 201 211 212 214 230 226 230 236 240 249 260 270 290 298 305 309 319 329 336 333 336 337 352 349 340 332 326 312 305 318 324 324 324 324 325 324 328 324
208 212 233 220 216 215 217 224 212 208 233 231 244 251 251 264 274 278 281 289 300 311 310 314 312 308 306 304 311 308 300 298 297 298 298 307 312 312 312 312 310 306 304
211 215 223 241 231 224 227 228 225 229 229 235 245 253 256 258 270 276 281 291 292 297 301 306 310 311 308 301 299 298 297 297 294 295 295 294 299 300 302 302 300 299 298
212 213 213 229 243 235 227 233 236 235 228 238 242 249 262 255 260 271 274 272 275 283 284 288 292 291 294 298 294 296 295 294 291 293 290 289 290 292 293 295 295 294 294
215 213 213 221 235 242 230 226 230 235 235 234 238 241 250 264 259 268 272 269 263 265 271 278 283 286 289 290 293 293 295 296 295 293 290 293 294 292 290 290 290 291 289
214 219 222 223 237 239 236 230 230 234 240 241 245 245 245 253 266 263 267 266 267 274 286 288 290 287 289 293 290 294 293 296 296 296 293 295 299 299 296 292 288 289 290
210 210 217 222 232 243 241 227 231 237 241 246 252 260 262 262 265 267 268 276 274 278 282 283 284 288 290 296 294 298 295 293 300 289 292 296 293 300 293 292 291 291 289
221 219 214 219 225 234 237 236 234 240 246 251 255 260 263 266 264 264 272 273 277 278 282 288 289 292 293 291 293 299 300 306 301 307 300 300 299 301 295 297 294 298 289
229 224 217 215 215 225 236 237 233 237 242 248 253 262 264 265 260 254 261 270 276 284 286 290 292 296 300 293 298 291 293 294 300 303 297 296 296 295 289 292 294 293 292
237 232 228 220 212 207 227 240 246 231 235 247 253 265 264 263 267 264 263 264 268 278 286 290 291 292 296 298 297 296 300 297 298 299 300 298 300 288 295 298 298 296 294
217 214 215 214 209 205 205 229 220 220 226 225 239 255 268 281 274 277 272 271 271 274 277 285 290 293 291 294 296 302 304 305 300 299 300 301 300 299 297 296 295 297 297
172 165 161 177 195 202 204 206 212 240 221 218 234 244 250 267 285 278 280 274 280 289 288 290 291 291 293 293 297 295 298 297 301 302 299 302 301 301 299 300 299 300 301